N5ZPR Weather Reports


Display with metric or nautical units.
time (UTC)temp
F
wind
direction
speed
MPH
gust
MPH
rain 1hr
in
rain 24hr
in
rain mn
in
humidity
%
barometer
mb
20260507001004 60 24 1.0 3.0 0.00 0.14 0.14 87 1011.6
20260507000003 60 24 3.0 5.0 0.00 0.14 0.14 88 1011.6
20260506235003 60 37 2.0 5.0 0.02 0.14 0.14 88 1011.6
20260506233003 59 24 3.0 8.0 0.02 0.14 0.14 88 1011.5
20260506232004 59 36 5.0 6.0 0.02 0.14 0.14 87 1011.5
20260506230003 60 18 6.0 9.0 0.02 0.14 0.14 85 1011.5
20260506225003 60 1 7.0 9.0 0.00 0.12 0.12 82 1011.5
20260506223004 61 329 8.0 12.0 0.00 0.12 0.12 76 1011.1
20260506222003 62 15 9.0 12.0 0.00 0.12 0.12 76 1011.1
20260506221004 62 6 7.0 12.0 0.00 0.12 0.12 76 1011.2
20260506220004 61 22 8.0 12.0 0.00 0.12 0.12 77 1011.2
20260506215004 61 13 9.0 12.0 0.00 0.12 0.12 76 1011.2
20260506214003 61 315 5.0 12.0 0.00 0.12 0.12 76 1011.9
20260506213003 61 351 7.0 9.0 0.00 0.12 0.12 76 1011.9
20260506212003 61 0 8.0 12.0 0.00 0.12 0.12 76 1011.9
20260506211004 61 356 7.0 12.0 0.00 0.12 0.12 77 1011.9
20260506210003 61 12 7.0 12.0 0.00 0.12 0.12 76 1011.9
20260506203003 60 341 7.0 12.0 0.00 0.12 0.12 78 1011.9
20260506201004 59 343 5.0 12.0 0.00 0.12 0.12 81 1011.1
20260506200004 59 354 7.0 10.0 0.00 0.12 0.12 80 1011.1
20260506195003 59 19 8.0 13.0 0.00 0.12 0.12 80 1011.1
20260506194004 59 10 6.0 13.0 0.00 0.12 0.12 80 1011.1
20260506192003 58 350 7.0 10.0 0.00 0.12 0.12 82 1011.1
20260506191004 57 4 7.0 10.0 0.00 0.12 0.12 83 1011.1
20260506190004 57 19 2.0 8.0 0.00 0.12 0.12 84 1011.1
20260506185003 56 349 4.0 9.0 0.00 0.12 0.12 84 1011.1
20260506183003 56 359 4.0 9.0 0.00 0.12 0.12 84 1011.1
20260506182003 56 8 5.0 12.0 0.00 0.12 0.12 84 1011.1
20260506181003 57 0 7.0 15.0 0.00 0.12 0.12 84 1011.1
20260506180005 57 24 12.0 21.0 0.00 0.12 0.12 85 1011.1
20260506175003 56 20 13.0 21.0 0.00 0.12 0.12 87 1011.4
20260506174004 55 353 10.0 20.0 0.00 0.12 0.12 88 1011.7
20260506173003 55 6 9.0 15.0 0.00 0.12 0.12 88 1012.4
20260506172003 55 358 10.0 15.0 0.00 0.12 0.12 89 1012.4
20260506170003 55 39 8.0 13.0 0.00 0.12 0.12 89 1012.4
20260506164004 54 2 10.0 16.0 0.00 0.12 0.12 89 1012.1
20260506163004 54 14 9.0 16.0 0.00 0.12 0.12 89 1012.1
20260506162004 54 1 9.0 15.0 0.00 0.12 0.12 90 1012.1
20260506161003 55 17 7.0 12.0 0.01 0.12 0.12 90 1012.1
20260506160003 54 30 9.0 12.0 0.02 0.12 0.12 91 1012.1
20260506155004 54 342 7.0 10.0 0.12 0.12 0.12 91 1012.1
20260506154004 53 332 4.0 12.0 0.12 0.12 0.12 91 1013.7
20260506153003 53 26 8.0 13.0 0.12 0.12 0.12 91 1013.7
20260506152003 53 324 6.0 13.0 0.12 0.12 0.12 91 1013.7
20260506151003 53 299 3.0 13.0 0.11 0.11 0.11 89 1013.7
20260506150003 53 3 9.0 12.0 0.10 0.10 0.10 86 1013.7
20260506145003 54 344 5.0 9.0 0.00 0.00 0.00 85 1012.2
20260506144004 54 334 4.0 9.0 0.00 0.00 0.00 84 1012.2
20260506143003 53 207 2.0 21.0 0.00 0.00 0.00 84 1012.2
20260506142004 54 358 8.0 15.0 0.00 0.00 0.00 84 1012.2
20260506141003 54 347 6.0 16.0 0.00 0.00 0.00 84 1012.2
20260506140004 54 339 9.0 12.0 0.00 0.00 0.00 83 1012.2
20260506135003 54 344 6.0 12.0 0.00 0.00 0.00 82 1010.0
20260506134004 54 354 8.0 12.0 0.00 0.00 0.00 82 1010.0
20260506133004 54 351 10.0 16.0 0.00 0.00 0.00 81 1010.0
20260506130004 55 353 9.0 18.0 0.00 0.00 0.00 79 1010.0
20260506125003 55 14 9.0 16.0 0.00 0.00 0.00 78 1010.0
20260506124004 55 338 8.0 14.0 0.00 0.00 0.00 78 1010.0
20260506123004 55 356 7.0 15.0 0.00 0.00 0.00 78 1010.0
20260506122004 55 355 6.0 20.0 0.00 0.00 0.00 78 1010.0
20260506121003 55 0 9.0 13.0 0.00 0.00 0.00 78 1010.0
20260506120003 56 349 10.0 16.0 0.00 0.00 0.00 78 1010.0
20260506115004 56 19 7.0 14.0 0.00 0.00 0.00 78 1010.0
20260506114004 56 355 7.0 12.0 0.00 0.00 0.00 78 1010.0
20260506112004 56 7 7.0 14.0 0.00 0.00 0.00 78 1009.2
20260506111003 57 351 6.0 15.0 0.00 0.00 0.00 78 1009.2
20260506110003 57 345 7.0 18.0 0.00 0.00 0.00 77 1009.2
20260506104003 58 2 9.0 15.0 0.00 0.00 0.00 78 1008.5
20260506102003 58 10 8.0 14.0 0.00 0.00 0.00 79 1008.0
20260506101003 58 11 7.0 12.0 0.00 0.00 0.00 78 1008.0
20260506100004 59 345 7.0 12.0 0.00 0.00 0.00 78 1008.0
20260506095004 59 355 7.0 12.0 0.00 0.00 0.00 78 1008.0
20260506094004 59 340 7.0 10.0 0.00 0.00 0.00 78 1008.0
20260506093003 60 352 7.0 12.0 0.00 0.00 0.00 78 1007.8
20260506092004 60 1 9.0 12.0 0.00 0.00 0.00 78 1007.8
20260506091003 60 13 8.0 13.0 0.00 0.00 0.00 78 1007.8
20260506090003 61 7 7.0 12.0 0.00 0.00 0.00 78 1007.8
20260506085003 61 7 7.0 13.0 0.00 0.00 0.00 78 1007.7
20260506084003 61 19 6.0 12.0 0.00 0.00 0.00 78 1007.5
20260506083004 61 20 8.0 14.0 0.00 0.00 0.00 78 1007.2
20260506082004 61 356 6.0 12.0 0.00 0.00 0.00 78 1007.2
20260506081003 61 10 8.0 12.0 0.00 0.00 0.00 78 1007.2
20260506073003 62 15 6.0 9.0 0.00 0.00 0.00 80 1007.3
20260506072003 62 345 7.0 10.0 0.00 0.00 0.00 79 1007.3
20260506071003 62 351 7.0 13.0 0.00 0.00 0.00 79 1007.3
20260506062003 63 9 9.0 15.0 0.00 0.00 0.00 79 1007.1
20260506051003 65 336 9.0 14.0 0.00 0.00 0.00 77 1007.0
20260506044003 66 13 9.0 14.0 0.00 0.00 0.00 75 1007.0
20260506043003 67 15 10.0 15.0 0.00 0.00 0.00 75 1007.0
20260506042004 68 346 8.0 12.0 0.00 0.00 0.00 75 1006.2
20260506041003 68 9 7.0 14.0 0.00 0.00 0.00 75 1006.2
20260506040003 68 352 7.0 12.0 0.00 0.00 0.00 74 1006.2
20260506035004 69 346 9.0 13.0 0.00 0.00 0.00 73 1006.2
20260506034003 69 4 6.0 13.0 0.00 0.00 0.00 72 1005.7
20260506032003 69 7 7.0 12.0 0.00 0.00 0.00 70 1005.7
20260506031004 69 16 7.0 12.0 0.00 0.00 0.00 70 1005.7
20260506030004 70 0 7.0 12.0 0.00 0.00 0.00 70 1005.7
20260506025004 71 341 10.0 14.0 0.00 0.00 0.00 70 1005.0
20260506023004 72 343 10.0 13.0 0.00 0.00 0.00 69 1004.9
20260506022003 72 349 9.0 13.0 0.00 0.00 0.00 69 1004.6
20260506020004 73 356 8.0 14.0 0.00 0.00 0.00 68 1004.0
20260506015003 74 16 10.0 16.0 0.00 0.00 0.00 67 1003.1
20260506014004 75 22 9.0 14.0 0.00 0.00 0.00 67 1003.1
20260506013004 76 7 8.0 12.0 0.00 0.00 0.00 66 1003.1
20260506012003 77 9 7.0 14.0 0.00 0.00 0.00 64 1003.1
20260506011004 78 16 7.0 12.0 0.00 0.00 0.00 64 1002.3
20260506010004 78 345 9.0 14.0 0.00 0.00 0.00 62 1002.3
20260506004003 79 341 7.0 12.0 0.00 0.00 0.00 61 1002.3
20260506003003 80 357 6.0 10.0 0.00 0.00 0.00 60 1002.3
20260506002004 81 347 7.0 12.0 0.00 0.00 0.00 59 1002.3